Clinton, AR

1:03 AM CST on February 13, 2016 (GMT -0600)
Clinton

Weather History for KCCA - November, 2011

Change the Weather History Date:

Sunday, November 27, 2011

  Actual Average (KFLP) Record (KFLP)
Temperature  
Mean Temperature 42 °F -  
Max Temperature 44 °F 54 °F 78 °F (1999)
Min Temperature 37 °F 34 °F 21 °F (1996)
Degree Days  
Heating Degree Days 24    
Moisture  
Dew Point 33 °F    
Average Humidity 72    
Maximum Humidity 87    
Minimum Humidity 65    
Precipitation  
Precipitation 0.01 in - - ()
Sea Level Pressure  
Sea Level Pressure 30.10 in    
Wind  
Wind Speed 6 mph (NNW)    
Max Wind Speed 15 mph    
Max Gust Speed 22 mph    
Visibility 10 miles    
Events Rain    
Averages and records for this station are not official NWS values.
T = Trace of Precipitation, MM = Missing Value Source: NWS Daily Summary

Daily Weather History Graph

Daily Weather History Graph

Search for Another Location

Airport or City:

Trip Planner

Search our weather history database for the weather conditions in past years. The results will help you decide how hot, cold, wet, or windy it might be!

Date:

Astronomy

Nov. 27, 2011 Rise Set
Actual Time 6:56 AM CST 4:57 PM CST
Civil Twilight 6:29 AM CST 5:25 PM CST
Nautical Twilight 5:57 AM CST 5:56 PM CST
Astronomical Twilight 5:27 AM CST 6:27 PM CST
Moon 9:21 AM CST (11/27) 7:37 PM CST (11/27)
Length of Visible Light 10h 56m
Length of Day
10h 00m
Waxing Crescent, 8% of the Moon is Illuminated
Nov 27
Waxing Crescent
Dec 2
First Quarter
Dec 10
Full
Dec 17
Last Quarter
Dec 24
New

Hourly Weather History & Observations

Time (CST) Temp. Windchill Dew Point Humidity Pressure Visibility Wind Dir Wind Speed Gust Speed Precip Events Conditions
12:15 AM 44.6 °F 40.7 °F 39.2 °F 81% 30.01 in 8.0 mi NNW 6.9 mph - N/A Rain Light Rain
12:35 AM 44.6 °F 42.2 °F 39.2 °F 81% 30.00 in 9.0 mi NNW 4.6 mph 21.9 mph N/A   Overcast
12:55 AM 44.6 °F 41.4 °F 37.4 °F 76% 29.99 in 9.0 mi NNW 5.8 mph 19.6 mph N/A   Overcast
1:15 AM 44.6 °F 40.7 °F 39.2 °F 81% 30.02 in 8.0 mi NNW 6.9 mph - N/A   Overcast
1:35 AM 44.6 °F 41.4 °F 39.2 °F 81% 30.01 in 5.0 mi NNW 5.8 mph - 0.01 in Rain Light Rain
1:55 AM 42.8 °F 40.1 °F 39.2 °F 87% 30.00 in 7.0 mi NNW 4.6 mph - 0.01 in   Overcast
2:15 AM 44.6 °F 41.4 °F 39.2 °F 81% 30.00 in 8.0 mi NW 5.8 mph 16.1 mph N/A   Overcast
2:35 AM 44.6 °F 41.4 °F 37.4 °F 76% 30.01 in 10.0 mi NNW 5.8 mph - N/A   Overcast
2:55 AM 44.6 °F 42.2 °F 37.4 °F 76% 30.02 in 9.0 mi North 4.6 mph - N/A   Overcast
3:15 AM 42.8 °F 40.1 °F 37.4 °F 81% 30.01 in 8.0 mi NNW 4.6 mph - N/A   Overcast
3:35 AM 42.8 °F 39.3 °F 37.4 °F 81% 30.01 in 10.0 mi NW 5.8 mph - N/A   Overcast
3:55 AM 42.8 °F 41.1 °F 37.4 °F 81% 30.02 in 6.0 mi NNW 3.5 mph - N/A   Haze
4:15 AM 42.8 °F 38.0 °F 37.4 °F 81% 30.04 in 5.0 mi NNW 8.1 mph - N/A Rain Light Rain
4:35 AM 42.8 °F 39.3 °F 37.4 °F 81% 30.04 in 9.0 mi NNW 5.8 mph - N/A   Overcast
4:55 AM 42.8 °F 39.3 °F 35.6 °F 76% 30.05 in 10.0 mi NW 5.8 mph - N/A   Overcast
5:15 AM 42.8 °F - 33.8 °F 70% 30.05 in 10.0 mi Calm Calm - N/A   Overcast
5:35 AM 42.8 °F 39.3 °F 33.8 °F 70% 30.05 in 10.0 mi NNW 5.8 mph - N/A   Mostly Cloudy
6:35 AM 41.0 °F 39.0 °F 35.6 °F 81% 30.07 in 10.0 mi NW 3.5 mph - N/A   Overcast
7:15 AM 41.0 °F 35.8 °F 33.8 °F 76% 30.08 in 10.0 mi NNW 8.1 mph - N/A   Overcast
7:35 AM 41.0 °F 35.2 °F 33.8 °F 76% 30.09 in 10.0 mi NNW 9.2 mph 21.9 mph N/A   Overcast
7:55 AM 41.0 °F 39.0 °F 33.8 °F 76% 30.10 in 10.0 mi NW 3.5 mph - N/A   Overcast
8:15 AM 41.0 °F 35.8 °F 33.8 °F 76% 30.10 in 10.0 mi NW 8.1 mph - N/A   Overcast
8:35 AM 41.0 °F - 33.8 °F 76% 30.10 in 10.0 mi Calm Calm - N/A   Overcast
8:55 AM 41.0 °F 38.0 °F 32.0 °F 70% 30.12 in 10.0 mi NW 4.6 mph - N/A   Overcast
9:15 AM 41.0 °F 35.8 °F 32.0 °F 70% 30.12 in 10.0 mi NNW 8.1 mph - N/A   Overcast
9:35 AM 42.8 °F 38.0 °F 32.0 °F 66% 30.13 in 10.0 mi NNW 8.1 mph - N/A   Overcast
9:55 AM 42.8 °F 40.1 °F 32.0 °F 66% 30.14 in 10.0 mi NW 4.6 mph - N/A   Overcast
10:15 AM 42.8 °F 37.5 °F 32.0 °F 66% 30.14 in 10.0 mi NNW 9.2 mph - N/A   Overcast
10:35 AM 42.8 °F 39.3 °F 32.0 °F 66% 30.15 in 10.0 mi NNW 5.8 mph 16.1 mph N/A   Overcast
10:55 AM 42.8 °F 38.0 °F 32.0 °F 66% 30.15 in 10.0 mi North 8.1 mph - N/A   Overcast
11:15 AM 42.8 °F 41.1 °F 32.0 °F 66% 30.14 in 10.0 mi NNW 3.5 mph - N/A   Overcast
11:35 AM 42.8 °F 35.4 °F 32.0 °F 66% 30.13 in 10.0 mi NW 15.0 mph 19.6 mph N/A   Overcast
11:55 AM 42.8 °F 37.0 °F 32.0 °F 66% 30.12 in 10.0 mi NNW 10.4 mph 20.7 mph N/A   Overcast
12:15 PM 42.8 °F 38.6 °F 32.0 °F 66% 30.12 in 10.0 mi NW 6.9 mph - N/A   Overcast
12:35 PM 42.8 °F 39.3 °F 32.0 °F 66% 30.11 in 10.0 mi NNW 5.8 mph 16.1 mph N/A   Overcast
12:55 PM 42.8 °F - 32.0 °F 66% 30.11 in 10.0 mi Calm Calm - N/A   Overcast
1:15 PM 42.8 °F 41.1 °F 32.0 °F 66% 30.12 in 10.0 mi NW 3.5 mph - N/A   Overcast
1:35 PM 42.8 °F 38.6 °F 32.0 °F 66% 30.12 in 10.0 mi NW 6.9 mph - N/A   Overcast
1:55 PM 42.8 °F 37.5 °F 32.0 °F 66% 30.12 in 10.0 mi NW 9.2 mph - N/A   Overcast
2:15 PM 42.8 °F 37.0 °F 32.0 °F 66% 30.12 in 10.0 mi NW 10.4 mph - N/A   Overcast
2:35 PM 42.8 °F 37.5 °F 32.0 °F 66% 30.12 in 10.0 mi NW 9.2 mph 17.3 mph N/A   Overcast
2:55 PM 42.8 °F 36.6 °F 32.0 °F 66% 30.13 in 10.0 mi NW 11.5 mph - N/A   Overcast
3:15 PM 42.8 °F 38.6 °F 32.0 °F 66% 30.14 in 10.0 mi NW 6.9 mph - N/A   Overcast
3:35 PM 42.8 °F 39.3 °F 32.0 °F 66% 30.14 in 10.0 mi North 5.8 mph - N/A   Overcast
3:55 PM 42.8 °F 41.1 °F 32.0 °F 66% 30.14 in 10.0 mi NNW 3.5 mph - N/A   Overcast
4:15 PM 42.8 °F 39.3 °F 32.0 °F 66% 30.15 in 10.0 mi NNW 5.8 mph - N/A   Overcast
4:55 PM 41.0 °F 39.0 °F 32.0 °F 70% 30.15 in 10.0 mi NNW 3.5 mph - N/A   Overcast
5:15 PM 41.0 °F 36.4 °F 32.0 °F 70% 30.14 in 10.0 mi North 6.9 mph - N/A   Overcast
5:35 PM 41.0 °F 39.0 °F 32.0 °F 70% 30.15 in 10.0 mi NNW 3.5 mph - N/A   Overcast
5:55 PM 41.0 °F 38.0 °F 32.0 °F 70% 30.15 in 10.0 mi North 4.6 mph - N/A   Overcast
6:15 PM 39.2 °F 35.9 °F 32.0 °F 75% 30.16 in 10.0 mi NNW 4.6 mph - N/A   Overcast
6:35 PM 39.2 °F 32.5 °F 30.2 °F 70% 30.16 in 10.0 mi NW 10.4 mph 17.3 mph N/A   Overcast
7:15 PM 39.2 °F 33.6 °F 30.2 °F 70% 30.17 in 10.0 mi NNW 8.1 mph - N/A   Overcast
7:55 PM 39.2 °F 35.0 °F 30.2 °F 70% 30.17 in 10.0 mi NNW 5.8 mph - N/A   Overcast
8:15 PM 39.2 °F 33.6 °F 30.2 °F 70% 30.17 in 10.0 mi NW 8.1 mph - N/A   Overcast
8:35 PM 39.2 °F 34.2 °F 30.2 °F 70% 30.16 in 10.0 mi NNW 6.9 mph - N/A   Overcast
9:15 PM 39.2 °F 32.5 °F 30.2 °F 70% 30.15 in 10.0 mi North 10.4 mph 16.1 mph N/A   Overcast
9:35 PM 39.2 °F 34.2 °F 30.2 °F 70% 30.15 in 10.0 mi NNW 6.9 mph - N/A   Overcast
9:55 PM 39.2 °F 35.0 °F 30.2 °F 70% 30.15 in 10.0 mi North 5.8 mph - N/A   Overcast
10:15 PM 39.2 °F 33.6 °F 30.2 °F 70% 30.14 in 10.0 mi NNW 8.1 mph - N/A   Overcast
10:55 PM 39.2 °F - 30.2 °F 70% 30.14 in 10.0 mi Calm Calm - N/A   Overcast
11:15 PM 39.2 °F 33.6 °F 28.4 °F 65% 30.14 in 10.0 mi North 8.1 mph - N/A   Overcast
11:55 PM 37.4 °F 32.1 °F 28.4 °F 70% 30.13 in 10.0 mi North 6.9 mph - N/A   Overcast